Hourly Weather Roundup
Issued by NWS Central Illinois

Home | Current Version | Previous Version | Text Only | Print | Product List | Glossary On
Versions: 1 2 3 4 5 6 7 8 9 10 11 12 13 14 15 16 17 18 19 20 21 22 23 24 25 26 27 28 29 30 31 32 33 34 35 36 37 38 39 40 41 42 43 44 45 46 47 48 49 50
343
NZUS43 KILX 261710
HWRILX

AREA WEATHER ROUNDUP
NATIONAL WEATHER SERVICE, LINCOLN IL
1200 PM CDT SUN MAR 26 2017


CITY           SKY/WX    TMP DP  RH WIND       PRES   REMARKS
BLOOMINGTON    CLOUDY    52  48  87 SW14      29.86S
CHAMPAIGN      CLOUDY    61  50  67 SW18      29.87S
DECATUR        CLOUDY    57  49  74 SW16      29.88S
EFFINGHAM      CLOUDY    58  52  79 S12       29.92F
FLORA          CLOUDY    61  51  69 SW15G22   29.92F
GALESBURG      CLOUDY    51  49  93 S12       29.82S
JACKSONVILLE   CLOUDY    53  49  87 SW12      29.87S
LACON          CLOUDY    53  51  93 SW10      29.84S
LAWRENCEVILLE  LGT RAIN  58  55  90 SW15      29.93S
LITCHFIELD     CLOUDY    52  49  89 S9        29.90S
$$


CITY           SKY/WX    TMP DP  RH WIND       PRES   REMARKS
LINCOLN        CLOUDY    55  52  89 S6        29.87F
MACOMB         CLOUDY    50  49  97 W14       29.87S
MATTOON        CLOUDY    59  51  75 SW10G18   29.88S
MT CARMEL AP   CLOUDY    57  54  89 SW12      29.93S
OLNEY-NOBLE AP CLOUDY    59  54  82 SW9       29.92F
PARIS          CLOUDY    61  54  78 S16G22    29.90S
PEORIA         CLOUDY    52  51  97 SW14      29.85S FOG
PONTIAC        CLOUDY    58  53  86 S16       29.86S
RANTOUL        CLOUDY    62  54  75 SW14      29.86F
SPRINGFIELD    CLOUDY    54  49  83 SW12      29.88S
TAYLORVILLE    CLOUDY    54  50  87 SW14      29.89S
$$

...REGIONAL REPORTS...


CITY           SKY/WX    TMP DP  RH WIND       PRES   REMARKS
CHICAGO O`HARE CLOUDY    58  54  86 CALM      29.82F
KANKAKEE       CLOUDY    62  55  80 SW15      29.85F
MOLINE         CLOUDY    55  51  86 SW9       29.81S
MOUNT STERLING CLOUDY    49  47  91 SW9       29.87R
MOUNT VERNON   CLOUDY    57  49  74 SW16      29.93F
PITTSFIELD     CLOUDY    51  48  89 W12       29.89S
QUINCY         LGT RAIN  49  47  93 SW12      29.87S
ROCKFORD       CLOUDY    56  52  86 CALM      29.83F
$$


CITY           SKY/WX    TMP DP  RH WIND       PRES   REMARKS
BURLINGTON     CLOUDY    49  47  93 W13       29.84R
CEDAR RAPIDS   FOG       45  45 100 NW5       29.82S VSB 1/4
DES MOINES     CLOUDY    44  42  93 NW7       29.89S FOG
KIRKSVILLE     CLOUDY    48  45  89 W12       29.89S
OTTUMWA        CLOUDY    46  45  96 W12       29.86S
ST LOUIS       CLOUDY    57  48  72 W12G21    29.91S
$$


CITY           SKY/WX    TMP DP  RH WIND       PRES   REMARKS
TERRE HAUTE    CLOUDY    62  53  72 S14       29.90F
EVANSVILLE     RAIN      59  56  89 VRB7      29.94F
INDIANAPOLIS   CLOUDY    60  55  83 S13       29.91S
LAFAYETTE      CLOUDY    60  55  83 SW15G23   29.87F
MADISON        LGT RAIN  44  42  93 NE7       29.84F FOG
MILWAUKEE      LGT RAIN  42  41  96 N3        29.85F VSB 1/4
$$






USA.gov is the U.S. government's official web portal to all federal, state and local government web resources and services.